Defiance, OH

7:56 PM EDT on October 21, 2017 (GMT -0400)
Defiance Memorial

Weather History for KDFI - August, 2013

Change the Weather History Date:

Monday, August 26, 2013

  Actual Average Record
Temperature  
Mean Temperature 76 °F -  
Max Temperature 89 °F 81 °F 102 °F (1948)
Min Temperature 64 °F 57 °F 45 °F (1946)
Cooling Degree Days 11    
Growing Degree Days 26 (Base 50)    
Moisture  
Dew Point 63 °F    
Average Humidity 65    
Maximum Humidity 84    
Minimum Humidity 46    
Precipitation  
Precipitation 0.00 in - - ()
Sea Level Pressure  
Sea Level Pressure 30.12 in    
Wind  
Wind Speed 5 mph (SW)    
Max Wind Speed 10 mph    
Max Gust Speed 17 mph    
Visibility 10 miles    
Events      
Averages and records for this station are not official NWS values.
T = Trace of Precipitation, MM = Missing Value Source: NWS Daily Summary

Daily Weather History Graph

Daily Weather History Graph

Search for Another Location

Airport or City:

Trip Planner

Search our weather history database for the weather conditions in past years. The results will help you decide how hot, cold, wet, or windy it might be!

Date:

Astronomy

Aug. 26, 2013 Rise Set
Actual Time 6:58 AM EDT 8:19 PM EDT
Civil Twilight 6:29 AM EDT 8:48 PM EDT
Nautical Twilight 5:54 AM EDT 9:23 PM EDT
Astronomical Twilight 5:18 AM EDT 9:59 PM EDT
Moon 11:25 PM EDT (8/26) 1:03 PM EDT (8/26)
Length of Visible Light 14h 19m
Length of Day
13h 21m
Waning Gibbous, 67% of the Moon is Illuminated
Aug 26
Waning Gibbous
Aug 28
Last Quarter
Sep 5
New
Sep 12
First Quarter
Sep 19
Full

Hourly Weather History & Observations

Time (EDT) Temp. Heat Index Dew Point Humidity Pressure Visibility Wind Dir Wind Speed Gust Speed Precip Events Conditions
12:53 AM 70.0 °F - 61.0 °F 73% 30.21 in 10.0 mi SW 4.6 mph - N/A   Clear
1:53 AM 69.1 °F - 60.1 °F 73% 30.19 in 10.0 mi SSW 3.5 mph - N/A   Clear
2:53 AM 68.0 °F - 60.1 °F 76% 30.17 in 10.0 mi SW 4.6 mph - N/A   Clear
3:53 AM 66.0 °F - 59.0 °F 78% 30.17 in 10.0 mi SSW 5.8 mph - N/A   Clear
4:53 AM 64.0 °F - 59.0 °F 84% 30.18 in 10.0 mi SSW 4.6 mph - N/A   Clear
5:53 AM 64.9 °F - 59.0 °F 81% 30.17 in 10.0 mi SSW 3.5 mph - N/A   Clear
6:53 AM 64.0 °F - 57.9 °F 80% 30.18 in 10.0 mi SSW 4.6 mph - N/A   Clear
7:53 AM 64.0 °F - 59.0 °F 84% 30.21 in 10.0 mi Calm Calm - N/A   Clear
8:53 AM 71.1 °F - 60.1 °F 68% 30.19 in 10.0 mi Variable 4.6 mph - N/A   Clear
9:53 AM 75.9 °F - 60.1 °F 58% 30.17 in 10.0 mi WSW 8.1 mph - N/A   Clear
10:53 AM 79.0 °F - 63.0 °F 58% 30.18 in 10.0 mi Variable 3.5 mph - N/A   Clear
11:53 AM 82.9 °F 84.6 °F 64.9 °F 54% 30.16 in 10.0 mi West 8.1 mph - N/A   Clear
12:53 PM 84.0 °F 85.8 °F 64.9 °F 53% 30.14 in 10.0 mi Variable 5.8 mph - N/A   Clear
1:53 PM 87.1 °F 89.9 °F 66.9 °F 51% 30.11 in 10.0 mi SW 8.1 mph - N/A   Clear
2:53 PM 87.1 °F 88.9 °F 64.9 °F 48% 30.09 in 10.0 mi WSW 6.9 mph 16.1 mph N/A   Clear
3:53 PM 88.0 °F 89.6 °F 64.9 °F 46% 30.06 in 10.0 mi SW 8.1 mph - N/A   Clear
4:53 PM 88.0 °F 89.6 °F 64.9 °F 46% 30.04 in 10.0 mi SW 10.4 mph 17.3 mph N/A   Clear
5:53 PM 86.0 °F 88.2 °F 66.0 °F 51% 30.04 in 10.0 mi Variable 4.6 mph - N/A   Clear
6:53 PM 84.9 °F 87.6 °F 66.9 °F 55% 30.03 in 10.0 mi WSW 5.8 mph - N/A   Clear
7:53 PM 82.9 °F 85.4 °F 66.9 °F 58% 30.04 in 10.0 mi Variable 4.6 mph - N/A   Clear
8:53 PM 80.1 °F 82.3 °F 66.9 °F 64% 30.04 in 10.0 mi Variable 4.6 mph - N/A   Clear
9:53 PM 78.1 °F - 66.9 °F 68% 30.03 in 10.0 mi SW 3.5 mph - N/A   Clear
10:53 PM 75.9 °F - 68.0 °F 76% 30.03 in 10.0 mi SW 3.5 mph - N/A   Clear
11:53 PM 75.9 °F - 68.0 °F 76% 30.02 in 9.0 mi SW 4.6 mph - N/A   Scattered Clouds